Wind_Speed
30 32 35 38 41 44 46 48 49 51 53 55 58 62 65 68 72 77 83 89 94 94 91 83 78 76 76 75 75 76 73 69 66 61 56 52 52 54 57 62 68 74 79
31 34 38 41 43 46 48 50 51 52 54 56 59 63 66 69 73 79 84 91 93 92 86 79 76 75 74 73 75 75 71 65 62 59 55 51 45 44 47 53 60 69 76
34 37 40 43 46 49 52 54 54 55 56 58 61 64 67 70 75 80 86 91 92 88 82 76 75 74 74 74 75 74 68 62 56 54 53 51 46 38 34 41 51 62 72
36 40 42 45 48 51 54 57 58 59 59 60 63 66 69 72 76 81 87 90 89 84 79 75 74 73 73 74 75 71 65 60 53 48 46 45 45 40 28 27 37 52 66
37 41 44 47 50 53 56 59 62 63 63 63 65 67 70 73 77 82 87 89 86 81 76 73 73 72 73 74 73 68 62 57 51 46 42 38 36 36 30 20 24 39 56
37 41 46 49 52 55 58 61 64 66 67 67 67 69 71 74 77 82 87 88 84 78 74 72 72 72 72 73 71 66 61 54 48 43 39 36 33 30 28 21 16 26 44
38 42 47 51 54 57 60 63 66 69 70 70 70 71 73 75 78 83 86 86 82 76 72 71 71 71 72 73 70 64 59 52 45 40 36 33 30 28 25 21 15 17 31
39 43 48 52 55 58 61 64 67 70 73 73 72 73 74 76 79 83 86 85 81 75 71 70 70 70 72 72 69 64 59 51 44 39 35 31 28 25 23 21 16 14 23
41 44 49 53 56 60 62 65 68 71 74 75 75 74 75 76 79 83 85 84 79 74 70 70 70 70 71 71 68 63 58 50 43 38 34 30 27 24 22 20 17 14 19
43 46 50 53 57 61 64 66 69 72 75 77 77 76 76 77 79 82 84 83 78 73 69 69 69 69 70 69 67 63 58 50 43 37 33 29 26 22 21 19 17 15 17
45 48 51 54 57 61 64 67 69 72 75 78 78 77 76 77 79 82 84 82 78 72 69 68 68 68 69 68 66 62 57 49 42 37 33 29 25 21 19 18 17 16 17
47 49 52 55 58 61 64 67 69 72 75 78 79 78 77 77 79 81 83 82 77 72 68 67 67 67 68 67 65 61 55 48 42 37 34 30 26 22 19 17 16 15 16
48 51 53 55 58 60 64 67 69 72 74 78 80 79 78 77 78 80 82 81 76 71 67 66 66 66 67 66 64 60 54 47 42 38 34 31 27 23 20 16 15 14 15
50 53 55 56 58 60 63 66 68 71 74 77 80 80 78 77 78 80 81 80 75 70 66 65 65 65 66 65 63 59 53 46 41 38 35 32 28 24 21 17 14 12 13
51 54 56 57 58 60 62 65 68 70 73 76 79 80 79 77 77 79 80 79 75 69 65 64 64 63 64 64 62 58 54 47 41 38 35 32 29 25 22 19 15 11 10
52 54 56 58 59 60 61 64 67 69 72 74 77 80 79 77 77 78 79 78 74 69 64 63 62 62 62 62 62 58 54 47 41 37 35 32 29 26 24 21 17 13 9
52 55 57 59 59 59 61 63 66 68 71 73 76 79 79 77 76 77 78 78 75 69 64 62 61 60 60 60 60 57 52 47 40 35 33 31 29 27 25 22 19 15 11
53 56 58 59 59 59 60 62 65 68 70 72 74 77 79 77 76 75 76 77 75 69 64 60 59 59 59 58 58 57 52 46 40 34 31 29 28 27 25 23 20 17 12
55 56 58 59 59 59 59 61 63 67 69 71 73 75 77 77 75 74 75 76 74 70 64 60 58 58 58 57 56 55 53 47 40 34 30 28 27 26 25 23 21 18 14
55 57 58 59 59 58 58 59 62 65 68 70 71 73 76 76 75 73 73 74 74 70 64 59 57 56 56 56 55 53 52 47 40 35 31 28 26 26 25 24 22 19 16
56 57 58 58 57 57 57 58 61 64 67 69 70 71 73 75 74 72 72 72 73 70 64 59 56 55 55 55 54 52 51 49 42 36 31 28 25 24 24 23 22 19 17
56 56 56 56 56 56 56 57 60 63 66 68 68 69 71 73 73 71 70 71 71 69 64 59 55 53 53 53 52 51 50 49 44 36 31 27 24 23 23 22 21 20 17
56 55 55 54 55 56 56 57 59 62 65 66 67 67 69 71 71 70 68 68 69 68 65 59 54 52 51 51 51 50 49 48 46 39 33 28 24 23 22 21 20 20 17
58 57 55 55 55 55 56 57 59 61 64 65 66 66 66 68 69 68 66 66 67 67 65 60 54 51 50 49 49 48 47 46 45 42 36 30 25 22 21 20 19 18 17
60 59 58 57 56 56 57 57 59 61 63 64 64 64 64 66 67 66 65 64 65 67 65 61 55 50 48 47 47 47 46 45 44 43 39 33 26 22 19 19 18 17 16
62 63 62 61 59 58 58 59 59 61 62 63 63 63 62 63 65 65 63 62 63 65 65 61 55 50 47 47 46 46 45 44 44 43 41 35 28 22 19 17 16 16 15
Wind_Direction
353 351 348 346 344 341 337 333 329 326 325 325 326 327 327 327 327 327 327 327 327 328 327 326 325 324 324 323 322 321 319 316 313 310 306 301 294 282 267 255 244 237 233
356 354 352 350 348 346 343 340 335 332 330 329 330 330 330 329 329 329 329 330 331 331 330 329 328 328 327 326 326 325 323 321 319 316 314 311 304 292 277 257 243 234 230
353 352 351 350 349 348 347 345 342 338 335 334 333 333 333 332 331 331 331 333 334 333 332 332 331 331 330 330 330 329 327 324 322 320 319 319 318 310 290 264 244 232 226
352 351 350 349 349 349 348 348 346 343 340 337 336 336 335 334 334 334 334 335 336 336 335 334 334 334 334 334 333 332 330 327 324 322 320 322 325 326 315 279 249 232 224
353 352 351 350 349 349 349 349 349 347 344 341 339 338 338 337 336 336 337 338 339 338 337 337 337 337 337 337 336 335 333 329 325 322 321 321 325 329 331 310 260 235 224
355 353 352 351 350 350 349 349 349 349 346 344 342 341 340 339 338 338 339 341 341 340 339 340 340 340 340 340 339 338 336 331 326 323 320 320 322 327 330 329 290 244 227
355 354 353 352 351 350 350 350 350 349 348 346 344 343 341 340 340 340 342 344 344 343 342 342 342 343 343 343 342 341 339 335 329 324 319 317 317 319 322 323 308 259 231
354 353 353 352 351 350 350 350 350 350 349 348 346 344 343 342 341 342 344 346 346 345 344 345 345 345 345 345 345 345 343 339 333 328 321 315 312 310 312 314 308 270 235
351 352 351 351 351 350 350 349 350 350 350 349 347 346 344 343 343 344 346 348 348 347 347 347 347 348 348 348 348 347 346 343 339 333 326 319 312 305 302 302 300 280 241
347 349 349 349 349 349 349 349 349 350 350 350 348 347 346 344 344 345 348 349 349 349 349 349 349 350 350 351 351 350 350 348 344 340 334 328 319 308 298 294 290 278 248
343 345 346 347 347 348 348 348 349 349 350 350 349 348 347 345 345 347 349 351 351 350 350 351 351 352 353 353 354 353 353 352 350 347 344 339 332 319 303 293 285 274 253
339 341 343 344 345 346 347 348 348 349 349 350 350 349 348 346 346 348 350 352 353 352 352 352 352 353 354 355 356 356 356 356 356 355 353 349 344 334 318 300 287 274 257
334 337 339 341 342 344 345 346 347 348 349 350 350 350 348 347 347 348 351 353 354 353 353 353 354 355 356 357 358 358 358 359 360 360 358 355 351 344 335 319 298 279 261
331 333 335 338 339 341 343 345 346 347 348 349 350 350 349 348 348 349 352 354 355 355 354 354 355 356 357 359 359 359 0 2 2 2 1 359 357 353 347 337 321 294 269
327 329 331 334 337 339 341 343 345 346 347 349 350 350 349 348 348 350 352 355 356 356 355 355 356 357 359 359 360 1 3 4 3 3 3 3 2 359 356 350 342 324 289
322 325 328 331 334 336 338 341 343 345 347 348 349 350 350 349 349 350 352 355 357 357 356 356 357 358 359 0 1 2 4 4 4 4 5 6 6 4 1 357 352 343 322
319 322 325 328 331 333 336 338 341 343 345 347 348 349 350 349 349 350 352 355 358 358 357 357 358 359 0 1 2 3 4 4 4 4 5 6 7 7 6 3 359 352 342
316 319 322 324 327 330 333 336 339 342 344 346 347 349 349 349 349 350 352 355 358 359 358 358 359 0 1 2 3 4 4 5 5 5 6 7 7 8 8 7 5 2 354
312 316 319 321 324 328 331 334 337 340 342 344 346 348 349 349 349 350 352 355 357 359 359 359 -0 1 2 3 4 5 5 5 5 6 6 7 7 8 9 8 7 7 5
309 313 316 319 322 325 329 332 335 338 341 343 345 347 348 348 348 349 351 354 357 359 360 360 1 2 3 3 4 5 6 6 6 6 6 6 7 8 9 9 8 8 8
307 310 313 316 320 323 326 329 332 335 338 341 343 345 347 348 348 348 350 353 356 359 0 0 1 2 3 3 4 5 7 7 7 7 7 7 7 8 9 10 10 11 14
305 308 311 314 317 320 323 327 329 333 336 339 341 344 346 347 347 348 349 352 355 359 0 1 1 2 3 4 4 5 7 8 9 8 8 8 8 8 10 12 13 14 18
304 306 308 311 314 317 320 323 327 330 333 336 339 342 344 346 346 347 348 351 354 358 0 1 2 2 3 4 5 6 7 8 10 10 10 11 10 9 11 14 16 18 23
302 304 306 308 311 313 316 320 323 326 330 333 337 339 342 344 345 345 347 350 353 357 359 1 2 2 3 5 5 6 8 9 10 12 12 13 12 12 14 15 19 22 27
298 300 302 304 307 309 312 315 319 322 326 330 334 337 339 342 343 344 346 348 351 355 359 1 2 3 3 4 5 6 8 10 11 13 14 13 12 12 15 18 21 25 31
293 295 297 300 302 305 307 310 314 318 322 326 330 334 337 340 342 342 344 346 349 353 358 1 1 2 3 5 6 7 8 10 12 13 14 14 13 14 16 20 24 29 36
Height
5829 5824 5818 5812 5806 5799 5791 5783 5774 5764 5755 5745 5734 5722 5710 5696 5682 5666 5648 5629 5607 5584 5561 5540 5522 5504 5488 5470 5453 5437 5421 5404 5387 5376 5367 5360 5349 5341 5339 5343 5353 5365 5377
5826 5821 5814 5808 5801 5794 5785 5776 5766 5756 5746 5735 5724 5711 5698 5684 5668 5651 5633 5612 5589 5566 5544 5525 5507 5490 5473 5455 5437 5419 5402 5387 5371 5357 5347 5340 5334 5324 5316 5318 5325 5337 5349
5822 5816 5810 5803 5796 5787 5779 5769 5758 5747 5736 5725 5713 5700 5686 5671 5655 5637 5617 5596 5573 5550 5529 5511 5493 5476 5458 5441 5423 5404 5386 5373 5360 5345 5333 5322 5314 5309 5302 5298 5303 5312 5325
5818 5812 5805 5798 5790 5781 5772 5761 5750 5739 5727 5715 5702 5688 5674 5659 5642 5624 5604 5582 5559 5536 5516 5498 5481 5464 5446 5428 5409 5390 5373 5358 5348 5338 5327 5316 5305 5296 5291 5287 5288 5294 5306
5814 5808 5800 5792 5784 5775 5765 5754 5742 5730 5717 5705 5691 5677 5662 5647 5630 5612 5591 5569 5546 5525 5505 5488 5470 5453 5435 5417 5398 5379 5363 5348 5337 5328 5320 5312 5303 5294 5285 5281 5279 5283 5291
5810 5803 5795 5787 5777 5768 5757 5746 5734 5722 5708 5695 5681 5667 5652 5636 5619 5600 5580 5558 5536 5515 5496 5479 5461 5443 5425 5407 5388 5370 5354 5340 5329 5319 5312 5305 5298 5291 5284 5279 5276 5276 5281
5805 5798 5790 5781 5771 5761 5750 5739 5726 5714 5700 5686 5672 5657 5642 5626 5608 5590 5569 5548 5527 5507 5489 5471 5453 5436 5417 5399 5380 5363 5347 5333 5322 5313 5306 5299 5293 5288 5282 5277 5273 5272 5275
5800 5792 5784 5775 5765 5755 5744 5732 5719 5706 5692 5678 5663 5648 5633 5616 5599 5580 5560 5539 5518 5499 5481 5464 5446 5429 5411 5392 5373 5356 5341 5327 5316 5307 5300 5294 5289 5284 5280 5275 5272 5270 5271
5795 5787 5778 5769 5759 5749 5737 5725 5712 5699 5685 5670 5655 5639 5624 5607 5590 5571 5551 5530 5510 5492 5474 5457 5440 5423 5405 5386 5368 5351 5336 5322 5311 5302 5294 5288 5284 5280 5276 5273 5269 5268 5268
5789 5781 5772 5763 5753 5743 5731 5719 5706 5692 5678 5663 5648 5632 5616 5599 5582 5564 5544 5524 5504 5485 5468 5452 5435 5418 5401 5382 5364 5347 5332 5318 5307 5298 5291 5284 5279 5275 5272 5269 5267 5265 5265
5782 5775 5766 5757 5747 5737 5725 5713 5699 5686 5672 5657 5641 5625 5609 5593 5575 5557 5538 5518 5499 5480 5464 5447 5431 5415 5397 5379 5362 5345 5330 5317 5306 5296 5288 5281 5275 5271 5268 5266 5264 5263 5262
5776 5769 5760 5751 5741 5730 5719 5707 5694 5680 5666 5651 5635 5619 5603 5586 5569 5551 5532 5513 5494 5476 5459 5444 5428 5411 5395 5378 5361 5345 5331 5318 5307 5297 5288 5280 5274 5269 5265 5263 5261 5260 5260
5771 5763 5754 5745 5735 5725 5713 5701 5688 5674 5660 5645 5630 5614 5597 5581 5564 5546 5528 5509 5490 5473 5456 5441 5425 5410 5394 5377 5361 5346 5332 5319 5307 5298 5289 5281 5274 5268 5264 5261 5259 5258 5258
5764 5756 5748 5739 5730 5719 5708 5696 5683 5669 5655 5640 5625 5609 5593 5576 5559 5542 5524 5505 5487 5470 5454 5439 5423 5408 5392 5376 5361 5348 5334 5320 5309 5299 5291 5282 5275 5269 5265 5261 5258 5256 5256
5757 5749 5741 5733 5723 5713 5703 5691 5678 5664 5650 5636 5620 5604 5588 5572 5555 5538 5520 5502 5484 5468 5452 5437 5422 5406 5391 5377 5363 5349 5334 5321 5311 5302 5293 5285 5277 5271 5266 5261 5258 5255 5254
5751 5743 5734 5726 5717 5707 5697 5686 5673 5660 5646 5631 5616 5600 5584 5568 5552 5535 5518 5500 5483 5467 5451 5436 5421 5406 5391 5377 5362 5348 5335 5324 5313 5304 5296 5288 5281 5274 5268 5263 5259 5256 5254
5743 5736 5727 5719 5710 5701 5691 5680 5668 5655 5641 5627 5612 5596 5581 5565 5549 5533 5516 5499 5482 5466 5451 5436 5421 5407 5393 5379 5364 5350 5338 5327 5317 5308 5300 5292 5285 5278 5272 5267 5262 5258 5255
5736 5728 5720 5712 5703 5695 5685 5674 5662 5650 5637 5623 5608 5593 5577 5562 5546 5531 5514 5498 5481 5466 5451 5436 5422 5408 5394 5380 5367 5354 5342 5330 5320 5311 5303 5296 5289 5282 5276 5271 5266 5261 5258
5728 5720 5713 5704 5696 5687 5678 5668 5657 5645 5632 5618 5604 5590 5574 5559 5544 5529 5513 5497 5480 5465 5450 5436 5422 5408 5395 5382 5369 5357 5345 5334 5324 5314 5307 5299 5292 5286 5279 5274 5269 5264 5261
5719 5712 5705 5696 5688 5680 5671 5662 5651 5640 5627 5614 5601 5586 5572 5557 5542 5527 5511 5496 5480 5464 5449 5435 5421 5408 5396 5384 5372 5360 5349 5338 5327 5317 5309 5302 5296 5289 5283 5277 5272 5268 5264
5709 5703 5695 5688 5680 5672 5663 5655 5645 5634 5622 5610 5597 5583 5569 5555 5540 5525 5510 5495 5480 5464 5450 5436 5422 5409 5397 5385 5374 5362 5352 5341 5330 5320 5312 5305 5299 5293 5287 5281 5276 5271 5267
5698 5692 5685 5679 5671 5663 5656 5648 5638 5628 5617 5606 5593 5580 5567 5552 5538 5523 5509 5494 5480 5465 5450 5436 5423 5411 5399 5387 5376 5365 5354 5343 5333 5324 5316 5309 5302 5296 5291 5285 5280 5275 5271
5686 5680 5675 5668 5662 5654 5647 5640 5632 5622 5612 5601 5589 5576 5563 5550 5536 5522 5508 5494 5480 5465 5451 5438 5425 5413 5401 5390 5379 5368 5357 5347 5337 5327 5318 5311 5305 5300 5295 5290 5285 5280 5276
5673 5668 5663 5658 5652 5645 5639 5632 5624 5615 5606 5596 5585 5573 5560 5548 5535 5521 5507 5494 5480 5466 5452 5439 5427 5415 5404 5393 5383 5372 5361 5351 5341 5331 5322 5314 5308 5303 5299 5294 5289 5285 5281
5660 5655 5651 5646 5642 5636 5629 5623 5616 5608 5600 5590 5580 5569 5557 5545 5533 5520 5507 5494 5481 5467 5454 5440 5428 5417 5406 5395 5385 5375 5365 5355 5345 5335 5326 5318 5312 5307 5302 5298 5294 5290 5287
5647 5642 5638 5634 5630 5625 5619 5613 5607 5601 5593 5584 5574 5564 5553 5542 5530 5518 5505 5492 5480 5467 5453 5440 5428 5417 5406 5396 5386 5376 5367 5357 5348 5339 5331 5323 5316 5311 5306 5302 5299 5295 5292